Voltar ao catálogo

STARLINK-34138

AtivoComunicaçõesVLEO
NORAD 63971·PAYLOAD·🇺🇸 United States

Lançado May 13, 2025 de Cape Canaveral Space Force Station

Loading…

Próximas Passagens (próximas 24 horas)

TLE

AtualizadoSource: CelesTrak SupGP

Época: Sep 14, 2026, 20:39 UTC

1 63971C 25099V   26257.86090278  .00003652  00000+0  13225-3 0  2571
2 63971  43.0006 184.3815 0001177 263.2050 249.6754 15.27584226    15

Acompanhe STARLINK-34138 em tempo real com AllMySat

Download on the App Store